Big Rapids, MI

9:34 AM EDT on October 17, 2019 (GMT -0400)
Roben-Hood

Weather History for KRQB - August, 2019

Change the Weather History Date:

Thursday, August 1, 2019

  Actual Average Record
Temperature  
Mean Temperature 65 °F -  
Max Temperature 80 °F 82 °F 99 °F (1988)
Min Temperature 50 °F 56 °F 46 °F (1990)
Growing Degree Days 15 (Base 50)    
Moisture  
Dew Point 53 °F    
Average Humidity 66    
Maximum Humidity 96    
Minimum Humidity 33    
Precipitation  
Precipitation 0.00 in - - ()
Sea Level Pressure  
Sea Level Pressure 30.20 in    
Wind  
Wind Speed 1 mph (West)    
Max Wind Speed 10 mph    
Max Gust Speed -    
Visibility 10 miles    
Events      
Averages and records for this station are not official NWS values.
T = Trace of Precipitation, MM = Missing Value Source: NWS Daily Summary

Daily Weather History Graph

Daily Weather History Graph

Search for Another Location

Airport or City:

Astronomy

Aug. 01, 2019 Rise Set
Actual Time 6:30 AM EDT 9:05 PM EDT
Civil Twilight 5:57 AM EDT 9:37 PM EDT
Nautical Twilight 5:16 AM EDT 10:18 PM EDT
Astronomical Twilight 4:30 AM EDT 11:05 PM EDT
Moon 6:53 AM EDT (8/1) 9:51 PM EDT (8/1)
Length of Visible Light 15h 40m
Length of Day
14h 34m
New Moon, 0% of the Moon is Illuminated
Aug 1
New Moon
Aug 7
First Quarter
Aug 15
Full
Aug 23
Last Quarter
Aug 30
New

Hourly Weather History & Observations

Time (EDT) Temp. Dew Point Humidity Pressure Visibility Wind Dir Wind Speed Gust Speed Precip Events Conditions
12:15 AM 59.5 °F 54.3 °F 83% 30.18 in 10.0 mi Calm Calm - N/A   Clear
12:16 AM 59.4 °F 54.1 °F 83% 30.18 in 10.0 mi Calm Calm - N/A   Clear
12:39 AM 59.7 °F 54.9 °F 84% 30.18 in 10.0 mi Calm Calm - N/A   Clear
12:57 AM 58.8 °F 54.1 °F 84% 30.18 in 10.0 mi Calm Calm - N/A   Clear
1:15 AM 58.3 °F 54.3 °F 87% 30.19 in 10.0 mi Calm Calm - N/A   Clear
1:35 AM 56.7 °F 53.2 °F 88% 30.19 in 10.0 mi Calm Calm - N/A   Clear
1:36 AM 56.7 °F 53.4 °F 89% 30.19 in 10.0 mi Calm Calm - N/A   Clear
1:55 AM 56.3 °F 53.8 °F 91% 30.19 in 10.0 mi Calm Calm - N/A   Clear
2:18 AM 55.9 °F 53.6 °F 92% 30.19 in 10.0 mi Calm Calm - N/A   Clear
2:36 AM 55.6 °F 53.2 °F 92% 30.19 in 10.0 mi Calm Calm - N/A   Clear
2:55 AM 55.4 °F 53.1 °F 92% 30.19 in 10.0 mi Calm Calm - N/A   Clear
2:56 AM 55.4 °F 53.1 °F 92% 30.19 in 10.0 mi Calm Calm - N/A   Clear
3:15 AM 54.7 °F 52.7 °F 93% 30.19 in 10.0 mi WSW 3.5 mph - N/A   Clear
3:39 AM 54.5 °F 52.7 °F 94% 30.19 in 10.0 mi Calm Calm - N/A   Clear
3:57 AM 53.8 °F 52.0 °F 94% 30.19 in 10.0 mi Calm Calm - N/A   Clear
4:15 AM 53.2 °F 51.8 °F 95% 30.19 in 10.0 mi Calm Calm - N/A   Clear
4:16 AM 53.2 °F 51.6 °F 94% 30.19 in 10.0 mi Calm Calm - N/A   Clear
4:35 AM 51.8 °F 50.4 °F 95% 30.20 in 10.0 mi Calm Calm - N/A   Clear
4:55 AM 52.0 °F 50.9 °F 96% 30.19 in 10.0 mi Calm Calm - N/A   Clear
4:59 AM 52.2 °F 50.9 °F 95% 30.19 in 10.0 mi Calm Calm - N/A   Clear
5:16 AM 52.2 °F 50.7 °F 95% 30.19 in 10.0 mi Calm Calm - N/A   Clear
5:35 AM 52.0 °F 50.7 °F 95% 30.19 in 10.0 mi West 3.5 mph - N/A   Clear
5:55 AM 51.4 °F 50.0 °F 95% 30.20 in 10.0 mi Calm Calm - N/A   Clear
5:56 AM 51.3 °F 49.8 °F 95% 30.20 in 10.0 mi Calm Calm - N/A   Clear
6:19 AM 50.9 °F 49.5 °F 95% 30.20 in 10.0 mi Calm Calm - N/A   Clear
6:37 AM 50.9 °F 49.3 °F 94% 30.21 in 10.0 mi Calm Calm - N/A   Clear
6:55 AM 50.9 °F 49.5 °F 95% 30.21 in 10.0 mi Calm Calm - N/A   Clear
7:15 AM 50.9 °F 49.5 °F 95% 30.22 in 10.0 mi Calm Calm - N/A   Clear
7:16 AM 50.9 °F 49.6 °F 95% 30.22 in 10.0 mi Calm Calm - N/A   Clear
7:35 AM 52.3 °F 51.1 °F 95% 30.22 in 10.0 mi Calm Calm - N/A   Clear
7:58 AM 55.4 °F 53.2 °F 92% 30.23 in 10.0 mi Calm Calm - N/A   Clear
8:16 AM 56.5 °F 54.5 °F 93% 30.23 in 10.0 mi Calm Calm - N/A   Clear
8:35 AM 58.3 °F 55.6 °F 91% 30.23 in 10.0 mi Calm Calm - N/A   Clear
8:55 AM 59.9 °F 56.1 °F 87% 30.24 in 10.0 mi Calm Calm - N/A   Clear
9:18 AM 62.4 °F 56.7 °F 81% 30.24 in 10.0 mi Calm Calm - N/A   Clear
9:36 AM 63.9 °F 56.7 °F 77% 30.24 in 10.0 mi Calm Calm - N/A   Clear
9:55 AM 66.2 °F 56.7 °F 71% 30.24 in 10.0 mi Calm Calm - N/A   Clear
10:15 AM 68.4 °F 56.3 °F 65% 30.24 in 10.0 mi Calm Calm - N/A   Clear
10:16 AM 68.4 °F 56.5 °F 66% 30.24 in 10.0 mi Calm Calm - N/A   Clear
10:39 AM 70.5 °F 55.9 °F 60% 30.23 in 10.0 mi SSE 5.8 mph - N/A   Clear
10:56 AM 71.8 °F 54.7 °F 55% 30.24 in 10.0 mi West 4.6 mph - N/A   Clear
11:15 AM 73.4 °F 54.1 °F 51% 30.24 in 10.0 mi WNW 6.9 mph - N/A   Clear
11:16 AM 73.4 °F 54.1 °F 51% 30.24 in 10.0 mi WNW 8.1 mph - N/A   Clear
11:35 AM 73.8 °F 54.1 °F 50% 30.24 in 10.0 mi Calm Calm - N/A   Clear
11:36 AM 73.8 °F 54.0 °F 50% 30.24 in 10.0 mi WNW 5.8 mph - N/A   Clear
11:59 AM 75.2 °F 53.4 °F 47% 30.24 in 10.0 mi West 3.5 mph - N/A   Scattered Clouds
12:17 PM 75.4 °F 53.8 °F 47% 30.24 in 10.0 mi SSW 4.6 mph - N/A   Mostly Cloudy
12:35 PM 75.2 °F 52.9 °F 46% 30.23 in 10.0 mi South 4.6 mph - N/A   Mostly Cloudy
12:36 PM 75.2 °F 52.9 °F 46% 30.23 in 10.0 mi South 5.8 mph - N/A   Mostly Cloudy
12:55 PM 75.0 °F 51.1 °F 43% 30.23 in 10.0 mi Calm Calm - N/A   Scattered Clouds
1:15 PM 77.0 °F 50.2 °F 39% 30.23 in 10.0 mi WSW 4.6 mph - N/A   Clear
1:20 PM 77.4 °F 49.3 °F 37% 30.23 in 10.0 mi West 5.8 mph - N/A   Clear
1:37 PM 77.2 °F 50.2 °F 39% 30.22 in 10.0 mi Calm Calm - N/A   Clear
1:56 PM 77.9 °F 49.8 °F 37% 30.22 in 10.0 mi WSW 3.5 mph - N/A   Clear
2:15 PM 77.2 °F 49.5 °F 38% 30.21 in 10.0 mi Calm Calm - N/A   Clear
2:35 PM 78.3 °F 51.6 °F 39% 30.21 in 10.0 mi WSW 4.6 mph - N/A   Clear
2:36 PM 78.4 °F 51.1 °F 38% 30.21 in 10.0 mi WSW 3.5 mph - N/A   Clear
2:59 PM 78.6 °F 49.5 °F 36% 30.20 in 10.0 mi West 4.6 mph - N/A   Clear
3:17 PM 79.2 °F 51.1 °F 37% 30.19 in 10.0 mi WSW 3.5 mph - N/A   Clear
3:35 PM 78.1 °F 50.0 °F 37% 30.19 in 10.0 mi South 5.8 mph - N/A   Clear
3:55 PM 79.0 °F 50.2 °F 36% 30.19 in 10.0 mi West 4.6 mph - N/A   Clear
3:56 PM 79.2 °F 50.5 °F 37% 30.19 in 10.0 mi WSW 4.6 mph - N/A   Clear
4:15 PM 80.2 °F 50.2 °F 35% 30.19 in 10.0 mi SW 3.5 mph - N/A   Clear
4:20 PM 79.7 °F 50.4 °F 36% 30.19 in 10.0 mi West 4.6 mph - N/A   Clear
4:38 PM 79.7 °F 50.4 °F 36% 30.18 in 10.0 mi SW 4.6 mph - N/A   Clear
4:55 PM 79.7 °F 47.8 °F 33% 30.18 in 10.0 mi Calm Calm - N/A   Clear
5:15 PM 79.2 °F 50.7 °F 37% 30.18 in 10.0 mi WSW 3.5 mph - N/A   Clear
5:38 PM 79.7 °F 50.7 °F 36% 30.17 in 10.0 mi North 4.6 mph - N/A   Clear
5:55 PM 79.2 °F 50.5 °F 37% 30.17 in 10.0 mi Calm Calm - N/A   Clear
6:15 PM 79.0 °F 51.1 °F 38% 30.17 in 10.0 mi Calm Calm - N/A   Clear
6:16 PM 79.0 °F 50.9 °F 37% 30.17 in 10.0 mi Calm Calm - N/A   Clear
6:35 PM 78.8 °F 49.6 °F 36% 30.17 in 10.0 mi Calm Calm - N/A   Clear
6:36 PM 78.8 °F 50.0 °F 36% 30.17 in 10.0 mi Calm Calm - N/A   Clear
6:59 PM 76.3 °F 52.7 °F 44% 30.16 in 10.0 mi Calm Calm - N/A   Clear
7:17 PM 77.9 °F 52.0 °F 40% 30.16 in 10.0 mi Calm Calm - N/A   Clear
7:35 PM 78.3 °F 53.4 °F 42% 30.16 in 10.0 mi Calm Calm - N/A   Clear
7:55 PM 76.3 °F 55.6 °F 49% 30.16 in 10.0 mi Calm Calm - N/A   Clear
7:56 PM 76.1 °F 55.6 °F 49% 30.16 in 10.0 mi Calm Calm - N/A   Clear
8:15 PM 75.4 °F 55.9 °F 51% 30.16 in 10.0 mi Calm Calm - N/A   Clear
8:38 PM 73.8 °F 57.2 °F 56% 30.16 in 10.0 mi NNW 9.2 mph - N/A   Clear
8:56 PM 71.6 °F 55.9 °F 58% 30.17 in 10.0 mi NNW 6.9 mph - N/A   Clear
9:15 PM 70.7 °F 55.4 °F 58% 30.17 in 10.0 mi NW 6.9 mph - N/A   Clear
9:16 PM 70.5 °F 55.4 °F 59% 30.17 in 10.0 mi NW 6.9 mph - N/A   Clear
9:35 PM 69.6 °F 55.4 °F 61% 30.17 in 10.0 mi West 10.4 mph - N/A   Clear
9:36 PM 69.4 °F 55.6 °F 61% 30.17 in 10.0 mi West 10.4 mph - N/A   Clear
9:59 PM 67.5 °F 55.2 °F 65% 30.18 in 10.0 mi WNW 10.4 mph - N/A   Clear
10:16 PM 66.0 °F 54.9 °F 67% 30.18 in 10.0 mi WNW 10.4 mph - N/A   Clear
10:35 PM 65.8 °F 53.2 °F 64% 30.19 in 10.0 mi NNW 5.8 mph - N/A   Clear
10:36 PM 65.7 °F 53.1 °F 64% 30.19 in 10.0 mi North 4.6 mph - N/A   Clear
10:55 PM 61.9 °F 55.9 °F 81% 30.19 in 10.0 mi Calm Calm - N/A   Clear
11:00 PM 63.0 °F 55.6 °F 77% 30.19 in 10.0 mi SW 4.6 mph - N/A   Clear
11:18 PM 63.0 °F 55.4 °F 76% 30.19 in 10.0 mi NNW 3.5 mph - N/A   Clear
11:36 PM 61.9 °F 54.1 °F 76% 30.19 in 10.0 mi Calm Calm - N/A   Clear
11:55 PM 60.6 °F 54.3 °F 80% 30.19 in 10.0 mi NNW 3.5 mph - N/A   Clear
11:56 PM 60.6 °F 54.1 °F 79% 30.19 in 10.0 mi NNW 3.5 mph - N/A   Clear